Location: Lone Wolf Observatory
(41.0360°N, 89.2260°W)
Time: 18:54:51
(UTC-05:00)

Amateur Radio Satellites - All Passes

Search period start: 21 August 2014 18:24
Search period end: 22 August 2014 18:24
Location: Lone Wolf Observatory, 41.0360°N, 89.2260°W

Satellite Date Start Highest point End Downlink Frequencies (MHz)
Time Altitude Azimuth
Sapphire 21 Aug 18:27:38 18:31:50 24° 107° (ESE) 18:36:04 437.095 MHz 1200 baud AX-25 AFSK
ISS 21 Aug 18:30:58 18:32:57 15° 9° (N) 18:34:55 145.800 FM
UOSAT-12 21 Aug 18:32:42 18:35:42 17° 251° (WSW) 18:38:39 437.025 FM, 437.400 FM
PANSAT 21 Aug 18:49:12 18:50:52 12° 182° (S) 18:52:31 not established
PCSat 21 Aug 18:57:03 19:02:11 46° 113° (ESE) 19:07:22 145.825 MHz
STRAND 1 21 Aug 18:59:46 19:04:02 26° 95° (E) 19:08:16 ?
OPAL 21 Aug 19:12:54 19:15:25 14° 303° (WNW) 19:17:57 ?
HO-68 21 Aug 19:21:56 19:26:22 18° 54° (NE) 19:30:48 435.675 MHz FM
SO-67 21 Aug 19:39:11 19:42:32 48° 261° (W) 19:45:55 435.3500 MHz FM
JAS-2 21 Aug 19:41:43 19:46:28 20° 267° (W) 19:50:54 435.800 - 435.900 CW/SSB, 435.910 FM
ISS 21 Aug 20:07:14 20:10:23 38° 28° (NNE) 20:13:32 145.800 FM
Sapphire 21 Aug 20:09:42 20:14:55 49° 304° (NW) 20:20:11 437.095 MHz 1200 baud AX-25 AFSK
RS-15 21 Aug 20:24:21 20:34:01 36° 253° (WSW) 20:44:03 29.354 - 29.394 USB, Beacon 29.352 USB
STRAND 1 21 Aug 20:38:38 20:43:16 36° 291° (WNW) 20:47:54 ?
PCSat 21 Aug 20:41:13 20:45:48 27° 311° (NW) 20:50:25 145.825 MHz
UKube-1 21 Aug 20:46:18 20:49:59 28° 68° (ENE) 20:53:42 145.840 MHz, 145.915 MHz
Oscar 11 21 Aug 21:03:17 21:06:45 24° 68° (ENE) 21:10:14 145.825 FM, Beacon 2401.500 USB
HO-68 21 Aug 21:05:56 21:13:05 87° 73° (ENE) 21:20:17 435.675 MHz FM
Oscar 10/S400 21 Aug 21:39:51 22:02:15 61° 169° (S) 06:42:29 145.825 - 145.975 CW/USB, Beacon 145.810 USB
ISS 21 Aug 21:44:09 21:47:02 27° 225° (SW) 21:49:53 145.800 FM
UKube-1 21 Aug 22:22:29 22:26:08 26° 264° (W) 22:29:48 145.840 MHz, 145.915 MHz
FUNcube-1 21 Aug 22:36:50 22:40:59 85° 257° (WSW) 22:45:11 145.950 - 145.970 MHz USB
Oscar 11 21 Aug 22:39:00 22:42:48 30° 264° (W) 22:46:37 145.825 FM, Beacon 2401.500 USB
HO-68 21 Aug 22:57:29 23:01:37 16° 270° (W) 23:05:46 435.675 MHz FM
MaSat-1 21 Aug 23:47:25 23:50:17 15° 45° (NE) 23:52:59 437.345 MHz
Saudisat 1A 22 Aug 00:26:47 00:30:08 22° 112° (ESE) 00:33:30 436.775 MHz
KITSAT 1 22 Aug 01:14:08 01:21:58 56° 113° (ESE) 01:29:49 435.175 FM
MaSat-1 22 Aug 01:23:15 01:28:07 76° 247° (WSW) 01:32:21 437.345 MHz
Oscar 16 22 Aug 01:23:44 01:27:01 17° 91° (E) 01:30:18 437.025 USB, Beacon 2401.1428
Saudisat 1A 22 Aug 02:05:18 02:09:28 41° 309° (NW) 02:13:40 436.775 MHz
Oscar 19 22 Aug 02:28:24 02:33:36 67° 102° (ESE) 02:38:45 437.125 CW, 437.150 USB
AO-Echo 22 Aug 02:34:22 02:38:41 34° 97° (E) 02:42:56 ?
ITAMSAT 1 22 Aug 02:38:51 02:43:37 36° 98° (E) 02:48:21 435.822 SSB
Gurwin Techsat 1B 22 Aug 02:39:19 02:42:37 17° 91° (E) 02:45:55 435.225 FM
JAS-1B 22 Aug 02:44:07 02:50:51 37° 94° (E) 02:56:35 435.800 - 435.900 CW/SSB
Uribyol 2 22 Aug 02:51:11 02:56:14 51° 100° (E) 03:01:15 436.500 FM
Oscar 16 22 Aug 03:01:38 03:06:45 59° 288° (WNW) 03:11:50 437.025 USB, Beacon 2401.1428
AO-27 22 Aug 03:05:00 03:10:09 66° 102° (ESE) 03:15:18 436.795 MHz FM
OPAL 22 Aug 03:10:10 03:13:39 19° 60° (ENE) 03:17:10 ?
KITSAT 1 22 Aug 03:10:17 03:17:40 38° 314° (NW) 03:25:06 435.175 FM
Sapphire 22 Aug 03:14:57 03:19:08 22° 46° (NE) 03:23:18 437.095 MHz 1200 baud AX-25 AFSK
TMSAT-1 22 Aug 03:36:00 03:41:00 41° 98° (E) 03:45:58 436.925 FM
PCSat 22 Aug 03:45:02 03:50:05 38° 53° (NE) 03:55:06 145.825 MHz
Oscar 19 22 Aug 04:09:14 04:12:22 16° 299° (WNW) 04:15:29 437.125 CW, 437.150 USB
AO-Echo 22 Aug 04:13:30 04:17:17 24° 294° (WNW) 04:21:03 ?
AO-7 22 Aug 04:16:04 04:22:49 27° 94° (E) 04:29:29 29.400 - 29.500 MHz
Gurwin Techsat 1B 22 Aug 04:17:45 04:23:00 61° 287° (WNW) 04:28:12 435.225 FM
ITAMSAT 1 22 Aug 04:18:37 04:22:57 28° 294° (WNW) 04:27:17 435.822 SSB
Uribyol 2 22 Aug 04:31:33 04:35:19 21° 297° (WNW) 04:39:05 436.500 FM
JAS-1B 22 Aug 04:34:37 04:41:29 39° 297° (WNW) 04:47:21 435.800 - 435.900 CW/SSB
AO-27 22 Aug 04:45:58 04:49:07 17° 299° (WNW) 04:52:16 436.795 MHz FM
OPAL 22 Aug 04:47:12 04:52:05 55° 257° (WSW) 04:57:05 ?
Uosat F 22 Aug 04:54:29 04:59:16 44° 99° (E) 05:04:01 435.120 FM
Sapphire 22 Aug 04:57:38 05:03:00 62° 245° (WSW) 05:08:20 437.095 MHz 1200 baud AX-25 AFSK
KITSAT 1 22 Aug 05:12:14 05:15:52 13° 341° (NNW) 05:19:31 435.175 FM
TMSAT-1 22 Aug 05:16:24 05:20:41 26° 295° (WNW) 05:24:58 436.925 FM
PCSat 22 Aug 05:28:38 05:33:23 32° 251° (WSW) 05:38:06 145.825 MHz
SO-50 22 Aug 05:50:02 05:54:08 38° 115° (ESE) 05:58:21 436.795 FM
Hamsat 22 Aug 05:55:34 05:58:26 17° 92° (E) 06:01:16 145.90 MHz
AO-7 22 Aug 06:07:56 06:16:08 67° 293° (WNW) 06:24:17 29.400 - 29.500 MHz
STRAND 1 22 Aug 06:15:31 06:20:13 38° 69° (ENE) 06:24:55 ?
Uosat F 22 Aug 06:33:57 06:37:46 22° 296° (WNW) 06:41:33 435.120 FM
JAS-2 22 Aug 06:48:44 06:53:46 51° 100° (E) 06:58:57 435.800 - 435.900 CW/SSB, 435.910 FM
UOSAT-12 22 Aug 07:04:01 07:06:59 17° 109° (ESE) 07:10:00 437.025 FM, 437.400 FM
SO-67 22 Aug 07:04:58 07:06:05 11° 91° (E) 07:07:12 435.3500 MHz FM
KITSAT 1 22 Aug 07:13:10 07:15:46 12° 13° (NNE) 07:18:21 435.175 FM
Hamsat 22 Aug 07:30:27 07:34:35 42° 288° (WNW) 07:38:41 145.90 MHz
SO-50 22 Aug 07:31:00 07:34:47 26° 314° (NW) 07:38:40 436.795 FM
STRAND 1 22 Aug 07:55:18 07:59:29 25° 265° (W) 08:03:40 ?
AO-7 22 Aug 08:03:01 08:07:23 16° 313° (NW) 08:11:44 29.400 - 29.500 MHz
JAS-2 22 Aug 08:35:00 08:38:32 19° 297° (WNW) 08:42:06 435.800 - 435.900 CW/SSB, 435.910 FM
RS-15 22 Aug 08:35:23 08:45:23 41° 108° (ESE) 08:55:10 29.354 - 29.394 USB, Beacon 29.352 USB
HO-68 22 Aug 08:35:52 08:39:55 16° 90° (E) 08:43:57 435.675 MHz FM
SO-67 22 Aug 08:36:05 08:39:20 38° 286° (WNW) 08:42:34 435.3500 MHz FM
UOSAT-12 22 Aug 08:42:09 08:46:40 55° 306° (NW) 08:51:19 437.025 FM, 437.400 FM
Saudisat 1A 22 Aug 08:53:03 08:56:22 20° 44° (NE) 08:59:40 436.775 MHz
KITSAT 1 22 Aug 09:07:34 09:14:27 30° 41° (NE) 09:21:18 435.175 FM
UKube-1 22 Aug 10:10:03 10:14:18 51° 100° (E) 10:18:31 145.840 MHz, 145.915 MHz
HO-68 22 Aug 10:21:16 10:28:28 89° 287° (WNW) 10:35:38 435.675 MHz FM
Oscar 11 22 Aug 10:26:08 10:30:23 48° 99° (E) 10:34:36 145.825 FM, Beacon 2401.500 USB
FUNcube-1 22 Aug 10:26:37 10:29:50 19° 93° (E) 10:33:05 145.950 - 145.970 MHz USB
UOSAT-12 22 Aug 10:26:54 10:27:54 11° 327° (NNW) 10:28:53 437.025 FM, 437.400 FM
Saudisat 1A 22 Aug 10:31:57 10:36:15 51° 242° (WSW) 10:40:30 436.775 MHz
RS-15 22 Aug 10:46:23 10:57:16 60° 310° (NW) 11:08:03 29.354 - 29.394 USB, Beacon 29.352 USB
KITSAT 1 22 Aug 11:02:33 11:10:38 75° 243° (WSW) 11:18:38 435.175 FM
UKube-1 22 Aug 11:47:34 11:50:05 15° 297° (WNW) 11:52:36 145.840 MHz, 145.915 MHz
FUNcube-1 22 Aug 12:02:14 12:06:21 39° 288° (WNW) 12:10:32 145.950 - 145.970 MHz USB
Oscar 11 22 Aug 12:03:29 12:06:11 16° 295° (WNW) 12:08:52 145.825 FM, Beacon 2401.500 USB
Oscar 19 22 Aug 12:09:38 12:11:43 13° 59° (ENE) 12:13:49 437.125 CW, 437.150 USB
HO-68 22 Aug 12:10:42 12:15:12 18° 306° (NW) 12:19:43 435.675 MHz FM
Oscar 16 22 Aug 12:40:26 12:44:33 25° 65° (ENE) 12:48:42 437.025 USB, Beacon 2401.1428
AO-27 22 Aug 12:47:09 12:49:28 13° 59° (ENE) 12:51:47 436.795 MHz FM
ISS 22 Aug 12:51:48 12:52:59 12° 129° (SE) 12:54:09 145.800 FM
KITSAT 1 22 Aug 13:01:05 13:04:38 14° 261° (W) 13:08:11 435.175 FM
RS-15 22 Aug 13:04:17 13:12:35 24° 340° (NNW) 13:20:56 29.354 - 29.394 USB, Beacon 29.352 USB
JAS-1B 22 Aug 13:25:16 13:34:14 41° 64° (ENE) 13:42:40 435.800 - 435.900 CW/SSB
Oscar 19 22 Aug 13:45:09 13:50:18 87° 256° (WSW) 13:55:30 437.125 CW, 437.150 USB
AO-Echo 22 Aug 13:46:46 13:51:42 47° 71° (ENE) 13:56:31 ?
ITAMSAT 1 22 Aug 13:56:42 14:01:44 55° 72° (ENE) 14:06:47 435.822 SSB
Gurwin Techsat 1B 22 Aug 14:00:01 14:04:23 27° 66° (ENE) 14:08:46 435.225 FM
Uribyol 2 22 Aug 14:08:57 14:14:06 76° 74° (ENE) 14:19:16 436.500 FM
Oscar 16 22 Aug 14:18:51 14:23:40 40° 262° (W) 14:28:32 437.025 USB, Beacon 2401.1428
SO-50 22 Aug 14:21:24 14:25:50 37° 50° (NE) 14:30:18 436.795 FM
AO-27 22 Aug 14:23:04 14:28:16 84° 256° (WSW) 14:33:29 436.795 MHz FM
ISS 22 Aug 14:25:57 14:29:15 79° 324° (NW) 14:32:35 145.800 FM
TMSAT-1 22 Aug 14:56:35 15:01:48 63° 73° (ENE) 15:07:02 436.925 FM
MaSat-1 22 Aug 15:11:13 15:15:43 49° 109° (ESE) 15:20:40 437.345 MHz
JAS-1B 22 Aug 15:14:40 15:24:20 56° 261° (W) 15:33:36 435.800 - 435.900 CW/SSB
AO-7 22 Aug 15:14:49 15:22:17 38° 60° (ENE) 15:29:45 29.400 - 29.500 MHz
RS-15 22 Aug 15:22:15 15:30:22 22° 17° (NNE) 15:38:34 29.354 - 29.394 USB, Beacon 29.352 USB
AO-Echo 22 Aug 15:26:52 15:30:39 20° 267° (W) 15:34:24 ?
UOSAT-12 22 Aug 15:32:36 15:35:58 19° 41° (NE) 15:39:18 437.025 FM, 437.400 FM
ITAMSAT 1 22 Aug 15:38:06 15:41:33 18° 268° (W) 15:45:01 435.822 SSB
Gurwin Techsat 1B 22 Aug 15:39:13 15:44:09 39° 262° (W) 15:49:07 435.225 FM
Uribyol 2 22 Aug 15:51:59 15:54:07 12° 270° (W) 15:56:16 436.500 FM
SO-50 22 Aug 16:02:11 16:06:17 29° 247° (WSW) 16:10:25 436.795 FM
ISS 22 Aug 16:03:58 16:06:25 19° 343° (NNW) 16:08:52 145.800 FM
Uosat F 22 Aug 16:07:33 16:12:29 61° 73° (ENE) 16:17:26 435.120 FM
TMSAT-1 22 Aug 16:39:00 16:42:09 16° 269° (W) 16:45:19 436.925 FM
PANSAT 22 Aug 16:45:48 16:46:25 10° 170° (S) 16:47:01 not established
MaSat-1 22 Aug 16:49:14 16:53:09 23° 309° (NW) 16:57:16 437.345 MHz
Hamsat 22 Aug 16:50:05 16:52:01 13° 63° (ENE) 16:53:56 145.90 MHz
OPAL 22 Aug 16:57:06 17:01:59 39° 100° (E) 17:06:50 ?
JAS-2 22 Aug 17:01:17 17:06:25 25° 65° (ENE) 17:11:07 435.800 - 435.900 CW/SSB, 435.910 FM
AO-7 22 Aug 17:06:48 17:14:50 51° 259° (WSW) 17:22:54 29.400 - 29.500 MHz
UOSAT-12 22 Aug 17:11:53 17:16:35 67° 240° (WSW) 17:21:12 437.025 FM, 437.400 FM
JAS-1B 22 Aug 17:14:57 17:16:28 10° 278° (W) 17:17:58 435.800 - 435.900 CW/SSB
RS-15 22 Aug 17:35:18 17:46:04 53° 48° (NE) 17:57:10 29.354 - 29.394 USB, Beacon 29.352 USB
ISS 22 Aug 17:42:23 17:44:08 14° 4° (N) 17:45:54 145.800 FM
Uosat F 22 Aug 17:48:46 17:51:40 15° 269° (W) 17:54:34 435.120 FM
Sapphire 22 Aug 17:58:13 18:01:35 17° 104° (ESE) 18:04:58 437.095 MHz 1200 baud AX-25 AFSK
